Flag Weather past 2 weeks in Esbjerg, Denmark

Now
48 °F

Scattered clouds.


Feels Like: 43 °F
Forecast: 42 / 50 °F
Wind: 13 mph from West

Location: Esbjerg Airport

Current Time: Nov 24, 2014 at 3:12:01 PM

Latest Report: Nov 24, 2014 at 2:50 PM


Visibility: N/A

Pressure: 30.04 "Hg

Humidity: 82%

Dew point: 43 °F

Location of EsbjergLocation

Historic Weather in Esbjerg — Graph

°F

Esbjerg temperature yesterday

Maximum temperature yesterday: 46 °F (at 8:50 PM)
Minimum temperature yesterday: 43 °F (at 12:20 AM)
Average temperature yesterday: 44 °F

Past Weeks' High & Low Weather Summary

 TemperatureHumidityPressure
High52 °F (Nov 9, 1:20 PM)100% (Nov 10, 12:20 AM)30.42 "Hg (Nov 10, 12:20 AM)
Low28 °F (Nov 21, 7:50 AM)72% (Nov 9, 1:20 PM)29.65 "Hg (Nov 16, 1:50 PM)
Average45 °F93%29.96 "Hg
* Reported Nov 9 1:20 PM — Nov 24 1:50 PM, Esbjerg, Weather by CustomWeather, © 2014

Note: Actual official high and low records may vary slightly from our data, if they occured in-between our weather recording intervals... More about our weather records

Advertising

Esbjerg weather history for previous 24 hours

 ConditionsComfort  
Time TempWeatherWind HumidityBarometerVisibility
1:50 PM
Nov 24
48 °FPassing clouds.14 mph82%30.04 "HgN/A
1:20 PM48 °FSprinkles. Scattered clouds.15 mph82%30.04 "HgN/A
12:50 PM48 °FPartly sunny.16 mph82%30.04 "HgN/A
12:20 PM48 °FSprinkles. Partly sunny.12 mph82%30.04 "HgN/A
11:50 AM46 °FRain showers. Partly sunny.14 mph87%30.04 "HgN/A
11:20 AM50 °FPartly sunny.13 mph82%30.04 "HgN/A
10:50 AM46 °FScattered clouds.10 mph82%30.04 "HgN/A
10:20 AM48 °FPartly sunny.15 mph76%30.04 "HgN/A
9:50 AM45 °FScattered clouds.7 mph87%30.01 "HgN/A
9:20 AM43 °FPassing clouds.8 mph93%30.01 "HgN/A
8:50 AM43 °FPassing clouds.7 mph87%30.01 "HgN/A
8:20 AM43 °FQuite cool.8 mph93%29.98 "HgN/A
7:50 AM45 °FPartly cloudy.6 mph87%29.98 "HgN/A
7:20 AM45 °FSprinkles. Passing clouds.10 mph93%29.95 "HgN/A
6:50 AM45 °FSprinkles. Passing clouds.9 mph93%29.95 "HgN/A
6:20 AM46 °FPassing clouds.13 mph93%29.92 "HgN/A
5:50 AM46 °FLight rain. Passing clouds.10 mph93%29.92 "HgN/A
5:20 AM46 °FLight rain. Mostly cloudy.8 mph93%29.89 "HgN/A
4:50 AM46 °FPassing clouds.8 mph100%29.89 "HgN/A
4:20 AM46 °FLight rain. Passing clouds.8 mph100%29.89 "HgN/A
3:50 AM46 °FLight rain. Passing clouds.6 mph100%29.86 "Hg6 mi
3:20 AM46 °FLight rain. Passing clouds.7 mph100%29.86 "HgN/A
2:50 AM46 °FLight rain. Partly cloudy.6 mph100%29.86 "Hg5 mi
2:20 AM48 °FLight rain. Passing clouds.12 mph94%29.86 "Hg4 mi
1:50 AM48 °FLight rain. Passing clouds.8 mph100%29.86 "HgN/A
1:20 AM48 °FLight rain. Passing clouds.8 mph100%29.86 "Hg4 mi
12:50 AM46 °FLight rain. Low clouds.7 mph100%29.86 "Hg3 mi
12:20 AM46 °FDrizzle. Low clouds.9 mph93%29.83 "Hg5 mi
11:50 PM
Nov 23
46 °FPassing clouds.8 mph93%29.83 "Hg5 mi
11:20 PM46 °FLight rain. Overcast.9 mph93%29.86 "Hg4 mi
10:20 PM46 °FLight rain. Mostly cloudy.7 mph93%29.86 "Hg5 mi
9:20 PM46 °FDrizzle. Mostly cloudy.10 mph87%29.89 "HgN/A
8:50 PM46 °FOvercast.10 mph87%29.89 "HgN/A
8:20 PM45 °FPassing clouds.8 mph93%29.92 "Hg5 mi
7:50 PM45 °FPartly cloudy.8 mph93%29.92 "Hg4 mi
7:20 PM45 °FOvercast.9 mph93%29.92 "Hg4 mi
6:50 PM45 °FLow clouds.9 mph93%29.92 "Hg4 mi
6:20 PM45 °FLow clouds.10 mph93%29.95 "Hg3 mi
5:50 PM45 °FLow clouds.10 mph93%29.95 "Hg4 mi
5:20 PM45 °FPassing clouds.10 mph93%29.95 "Hg3 mi
4:50 PM45 °FPassing clouds.13 mph93%29.95 "Hg3 mi
4:20 PM45 °FPassing clouds.10 mph93%29.95 "Hg3 mi
3:50 PM45 °FPartly sunny.9 mph93%29.98 "Hg3 mi
3:20 PM45 °FPartly sunny.10 mph93%29.98 "Hg4 mi
Weather by CustomWeather, © 2014

See weather overviewHow to use our weather pages